Satellite-Ground Cal/Val Region Overpasses Predictions

Prediction of Satellite NPP Overpassing Cal/Val Region: PacNW

Region Location: (Latitude: 10.00, Longitude: 139.50) to (Latitude: 22.70, Longitude: 165.60).

Table of predicted overpasses for the next 14.0 days since TLE Epoch: 8/21/2021
Interval Starting Time Starting Location Ending Time Ending Location
1 08/21/2021 03:17:57 ( 10.01, 150.25) 08/21/2021 03:21:33 ( 22.69, 147.23)
2 08/21/2021 15:49:50 ( 22.66, 147.48) 08/21/2021 15:53:25 ( 10.04, 144.47)
3 08/22/2021 02:58:56 ( 10.06, 154.99) 08/22/2021 03:02:31 ( 22.68, 151.99)
4 08/22/2021 15:30:49 ( 22.67, 152.24) 08/22/2021 15:34:24 ( 10.05, 149.23)
5 08/23/2021 02:39:55 ( 10.05, 159.75) 08/23/2021 02:43:30 ( 22.67, 156.74)
6 08/23/2021 15:11:48 ( 22.67, 156.99) 08/23/2021 15:15:23 ( 10.05, 153.99)
7 08/24/2021 02:20:53 ( 10.04, 164.51) 08/24/2021 02:24:28 ( 22.66, 161.50)
8 08/24/2021 14:52:46 ( 22.68, 161.75) 08/24/2021 14:56:22 ( 10.00, 158.73)
9 08/25/2021 03:43:22 ( 10.04, 143.89) 08/25/2021 03:46:57 ( 22.66, 140.88)
10 08/25/2021 14:34:49 ( 18.94, 165.59) 08/25/2021 14:37:21 ( 10.01, 163.49)
11 08/25/2021 16:15:15 ( 22.68, 141.14) 08/25/2021 16:17:09 ( 16.00, 139.51)
12 08/26/2021 03:24:20 ( 10.03, 148.65) 08/26/2021 03:27:55 ( 22.65, 145.64)
13 08/26/2021 15:56:13 ( 22.69, 145.89) 08/26/2021 15:59:49 ( 10.01, 142.88)
14 08/27/2021 03:05:19 ( 10.03, 153.41) 08/27/2021 03:08:54 ( 22.65, 150.40)
15 08/27/2021 15:37:12 ( 22.70, 150.65) 08/27/2021 15:40:48 ( 10.02, 147.63)
16 08/28/2021 02:46:17 ( 10.02, 158.16) 08/28/2021 02:49:52 ( 22.64, 155.16)
17 08/28/2021 15:18:11 ( 22.65, 155.40) 08/28/2021 15:21:46 ( 10.03, 152.39)
18 08/29/2021 02:27:16 ( 10.01, 162.92) 08/29/2021 02:30:52 ( 22.70, 159.90)
19 08/29/2021 14:59:10 ( 22.65, 160.15) 08/29/2021 15:02:45 ( 10.03, 157.15)
20 08/30/2021 02:10:46 ( 18.88, 165.60) 08/30/2021 02:11:51 ( 22.69, 164.66)
21 08/30/2021 03:49:45 ( 10.01, 142.30) 08/30/2021 03:53:06 ( 21.81, 139.50)
22 08/30/2021 14:40:08 ( 22.66, 164.91) 08/30/2021 14:43:43 ( 10.04, 161.91)
23 08/30/2021 16:21:38 ( 22.65, 139.54) 08/30/2021 16:21:40 ( 22.54, 139.51)
24 08/31/2021 03:30:43 ( 10.01, 147.06) 08/31/2021 03:34:19 ( 22.69, 144.04)
25 08/31/2021 16:02:37 ( 22.66, 144.29) 08/31/2021 16:06:12 ( 10.04, 141.29)
26 09/01/2021 03:11:42 ( 10.00, 151.82) 09/01/2021 03:15:18 ( 22.68, 148.80)
27 09/01/2021 15:43:35 ( 22.66, 149.05) 09/01/2021 15:47:10 ( 10.04, 146.05)
28 09/02/2021 02:52:41 ( 10.06, 156.56) 09/02/2021 02:56:16 ( 22.68, 153.56)
29 09/02/2021 15:24:34 ( 22.67, 153.81) 09/02/2021 15:28:09 ( 10.05, 150.81)
30 09/03/2021 02:33:40 ( 10.05, 161.32) 09/03/2021 02:37:15 ( 22.68, 158.32)
